Weather History for Brookings, SD

Change the Weather History Date:

Thursday, March 7, 2013

  Actual Average Record
Temperature  
Mean Temperature 25 °F -  
Max Temperature 33 °F 26 °F 41 °F (2012)
Min Temperature 17 °F 12 °F -16 °F (2008)
Degree Days  
Heating Degree Days 40    
Moisture  
Dew Point 22 °F    
Average Humidity 88    
Maximum Humidity 100    
Minimum Humidity 74    
Precipitation  
Precipitation 0.00 in - - ()
Sea Level Pressure  
Sea Level Pressure 30.17 in    
Wind  
Wind Speed 15 mph (SSE)    
Max Wind Speed 23 mph    
Max Gust Speed 28 mph    
Visibility 7 miles    
Events      
Averages and records for this station are not official NWS values.
T = Trace of Precipitation, MM = Missing Value Source: NWS Daily Summary

Daily Weather History Graph

Daily Weather History Graph

Search for Another Location

Airport:

Trip Planner

Search our weather history database for the weather conditions in past years. The results will help you decide how hot, cold, wet, or windy it might be!

Date:

Astronomy

Mar. 07, 2013 Rise Set
Actual Time 6:53 AM CST 6:23 PM CST
Civil Twilight 6:24 AM CST 6:52 PM CST
Nautical Twilight 5:51 AM CST 7:26 PM CST
Astronomical Twilight 5:17 AM CST 8:00 PM CST
Moon 4:02 AM CST (3/7) 2:05 PM CST (3/7)
Length of Visible Light 12h 28m
Length of Day
11h 30m
Waning Crescent, 20% of the Moon is Illuminated
Mar 7
Waning Crescent
Mar 11
New
Mar 19
First Quarter
Mar 27
Full
Apr 2
Last Quarter

Hourly Weather History & Observations

Time (CST) Temp. Windchill Dew Point Humidity Pressure Visibility Wind Dir Wind Speed Gust Speed Precip Events Conditions
12:15 AM 19.4 °F 6.6 °F 17.6 °F 93% 30.24 in 10.0 mi ESE 12.7 mph - N/A   Overcast
12:35 AM 19.4 °F 7.2 °F 17.6 °F 93% 30.24 in 10.0 mi ESE 11.5 mph - N/A   Overcast
12:55 AM 19.4 °F 7.2 °F 17.6 °F 93% 30.24 in 10.0 mi SE 11.5 mph - N/A   Overcast
1:15 AM 19.4 °F 7.9 °F 17.6 °F 93% 30.25 in 10.0 mi SE 10.4 mph - N/A   Overcast
1:35 AM 19.4 °F 5.5 °F 17.6 °F 93% 30.24 in 8.0 mi SE 15.0 mph - N/A   Overcast
1:55 AM 19.4 °F 6.0 °F 17.6 °F 93% 30.23 in 6.0 mi ESE 13.8 mph - N/A   Overcast
2:15 AM 19.4 °F 5.5 °F 17.6 °F 93% 30.23 in 6.0 mi SE 15.0 mph 19.6 mph N/A   Overcast
2:35 AM 17.6 °F 2.7 °F 17.6 °F 100% 30.23 in 7.0 mi SE 16.1 mph - N/A   Overcast
2:55 AM 17.6 °F 4.3 °F 17.6 °F 100% 30.22 in 8.0 mi SE 12.7 mph - N/A   Overcast
3:15 AM 17.6 °F 2.7 °F 17.6 °F 100% 30.21 in 9.0 mi SE 16.1 mph 20.7 mph N/A   Overcast
3:35 AM 17.6 °F 3.2 °F 17.6 °F 100% 30.21 in 7.0 mi SE 15.0 mph 20.7 mph N/A   Overcast
3:55 AM 19.4 °F 5.5 °F 17.6 °F 93% 30.20 in 8.0 mi SE 15.0 mph - N/A   Overcast
4:15 AM 19.4 °F 7.2 °F 17.6 °F 93% 30.21 in 5.0 mi SE 11.5 mph - N/A   Overcast
4:35 AM 19.4 °F 5.0 °F 17.6 °F 93% 30.20 in 5.0 mi SE 16.1 mph - N/A   Overcast
4:55 AM 19.4 °F 5.0 °F 17.6 °F 93% 30.20 in 7.0 mi SE 16.1 mph 21.9 mph N/A   Overcast
5:15 AM 19.4 °F 5.0 °F 17.6 °F 93% 30.20 in 5.0 mi SE 16.1 mph - N/A   Overcast
5:35 AM 19.4 °F 4.5 °F 17.6 °F 93% 30.19 in 5.0 mi SE 17.3 mph - N/A   Overcast
5:55 AM 19.4 °F 3.6 °F 17.6 °F 93% 30.19 in 5.0 mi SE 19.6 mph 24.2 mph N/A   Overcast
6:15 AM 19.4 °F 5.0 °F 17.6 °F 93% 30.19 in 3.0 mi SE 16.1 mph 24.2 mph N/A   Overcast
6:35 AM 19.4 °F 5.0 °F 17.6 °F 93% 30.18 in 2.5 mi SSE 16.1 mph 23.0 mph N/A   Overcast
6:55 AM 19.4 °F 5.0 °F 17.6 °F 93% 30.19 in 1.8 mi SSE 16.1 mph 24.2 mph N/A   Overcast
7:15 AM 19.4 °F 4.5 °F 17.6 °F 93% 30.19 in 2.5 mi SSE 17.3 mph 20.7 mph N/A   Overcast
7:35 AM 19.4 °F 5.0 °F 17.6 °F 93% 30.20 in 4.0 mi SSE 16.1 mph - N/A   Overcast
7:55 AM 19.4 °F 3.2 °F 17.6 °F 93% 30.19 in 5.0 mi SSE 20.7 mph 26.5 mph N/A   Overcast
8:15 AM 19.4 °F 3.2 °F 17.6 °F 93% 30.18 in 4.0 mi SSE 20.7 mph - N/A   Overcast
8:35 AM 19.4 °F 2.8 °F 17.6 °F 93% 30.18 in 5.0 mi SSE 21.9 mph 27.6 mph N/A   Overcast
8:55 AM 19.4 °F 4.5 °F 17.6 °F 93% 30.19 in 5.0 mi SSE 17.3 mph 26.5 mph N/A   Overcast
9:15 AM 19.4 °F 5.0 °F 17.6 °F 93% 30.17 in 8.0 mi SSE 16.1 mph - N/A   Overcast
9:35 AM 21.2 °F 5.6 °F 17.6 °F 86% 30.17 in 9.0 mi SSE 20.7 mph 24.2 mph N/A   Overcast
9:55 AM 21.2 °F 7.3 °F 17.6 °F 86% 30.17 in 8.0 mi SSE 16.1 mph - N/A   Mostly Cloudy
10:15 AM 23.0 °F 9.6 °F 19.4 °F 86% 30.17 in 9.0 mi SSE 16.1 mph 24.2 mph N/A   Mostly Cloudy
10:35 AM 24.8 °F 11.9 °F 19.4 °F 80% 30.18 in 10.0 mi SSE 16.1 mph 23.0 mph N/A   Mostly Cloudy
10:55 AM 24.8 °F 11.5 °F 21.2 °F 86% 30.18 in 10.0 mi SSE 17.3 mph - N/A   Scattered Clouds
11:15 AM 26.6 °F 14.3 °F 21.2 °F 80% 30.18 in 10.0 mi SSE 16.1 mph 21.9 mph N/A   Partly Cloudy
11:35 AM 26.6 °F 13.1 °F 21.2 °F 80% 30.16 in 10.0 mi SSE 19.6 mph 25.3 mph N/A   Partly Cloudy
11:55 AM 28.4 °F 15.1 °F 21.2 °F 74% 30.15 in 10.0 mi SSE 20.7 mph 27.6 mph N/A   Clear
12:15 PM 28.4 °F 15.1 °F 23.0 °F 80% 30.15 in 9.0 mi SSE 20.7 mph - N/A   Clear
12:35 PM 28.4 °F 15.4 °F 23.0 °F 80% 30.14 in 9.0 mi SSE 19.6 mph 27.6 mph N/A   Clear
12:55 PM 28.4 °F 14.7 °F 24.8 °F 86% 30.13 in 10.0 mi SSE 21.9 mph - N/A   Clear
1:15 PM 30.2 °F 17.8 °F 24.8 °F 80% 30.13 in 10.0 mi SSE 19.6 mph 25.3 mph N/A   Clear
1:35 PM 30.2 °F 18.1 °F 24.8 °F 80% 30.12 in 10.0 mi SSE 18.4 mph 25.3 mph N/A   Clear
1:55 PM 30.2 °F 18.9 °F 26.6 °F 86% 30.12 in 9.0 mi SSE 16.1 mph 23.0 mph N/A   Clear
2:15 PM 32.0 °F 20.8 °F 24.8 °F 75% 30.11 in 10.0 mi SSE 17.3 mph 24.2 mph N/A   Clear
2:35 PM 32.0 °F 20.5 °F 26.6 °F 80% 30.11 in 10.0 mi SSE 18.4 mph 24.2 mph N/A   Clear
2:55 PM 32.0 °F 19.2 °F 26.6 °F 80% 30.11 in 10.0 mi SSE 23.0 mph 27.6 mph N/A   Clear
3:15 PM 33.8 °F 22.5 °F 26.6 °F 75% 30.11 in 9.0 mi SSE 19.6 mph 23.0 mph N/A   Clear
3:35 PM 33.8 °F 22.8 °F 26.6 °F 75% 30.10 in 9.0 mi SSE 18.4 mph 23.0 mph N/A   Clear
3:55 PM 33.8 °F 22.8 °F 26.6 °F 75% 30.10 in 9.0 mi SSE 18.4 mph - N/A   Partly Cloudy
4:15 PM 33.8 °F 23.5 °F 28.4 °F 81% 30.10 in 9.0 mi SSE 16.1 mph 21.9 mph N/A   Partly Cloudy
4:35 PM 33.8 °F 23.9 °F 28.4 °F 81% 30.10 in 9.0 mi SSE 15.0 mph 21.9 mph N/A   Partly Cloudy
4:55 PM 33.8 °F 23.9 °F 28.4 °F 81% 30.10 in 9.0 mi SSE 15.0 mph 21.9 mph N/A   Partly Cloudy
5:15 PM 33.8 °F 25.3 °F 28.4 °F 81% 30.11 in 9.0 mi SSE 11.5 mph 18.4 mph N/A   Clear
5:35 PM 33.8 °F 25.8 °F 28.4 °F 81% 30.13 in 9.0 mi SSE 10.4 mph - N/A   Clear
5:55 PM 33.8 °F 25.8 °F 26.6 °F 75% 30.13 in 9.0 mi SSE 10.4 mph - N/A   Clear
6:15 PM 32.0 °F 23.0 °F 26.6 °F 80% 30.14 in 9.0 mi SSE 11.5 mph - N/A   Clear
6:35 PM 32.0 °F 22.1 °F 26.6 °F 80% 30.13 in 9.0 mi SSE 13.8 mph - N/A   Clear
6:55 PM 30.2 °F 20.8 °F 26.6 °F 86% 30.13 in 10.0 mi SSE 11.5 mph - N/A   Clear
7:15 PM 30.2 °F 19.8 °F 26.6 °F 86% 30.13 in 8.0 mi SSE 13.8 mph - N/A   Clear
7:35 PM 30.2 °F 20.8 °F 26.6 °F 86% 30.14 in 7.0 mi SSE 11.5 mph - N/A   Clear
7:55 PM 30.2 °F 20.8 °F 26.6 °F 86% 30.14 in 6.0 mi SSE 11.5 mph - N/A   Clear
8:15 PM 30.2 °F 20.2 °F 26.6 °F 86% 30.14 in 5.0 mi SSE 12.7 mph - N/A   Clear
8:35 PM 28.4 °F 17.5 °F 26.6 °F 93% 30.15 in 5.0 mi SSE 13.8 mph - N/A   Clear
8:55 PM 28.4 °F 17.0 °F 26.6 °F 93% 30.14 in 6.0 mi SSE 15.0 mph - N/A   Clear
9:15 PM 28.4 °F 18.0 °F 26.6 °F 93% 30.14 in 6.0 mi SSE 12.7 mph - N/A   Clear
9:35 PM 28.4 °F 18.5 °F 26.6 °F 93% 30.15 in 5.0 mi South 11.5 mph - N/A   Clear
9:55 PM 28.4 °F 18.0 °F 26.6 °F 93% 30.15 in 5.0 mi South 12.7 mph - N/A   Clear
10:15 PM 28.4 °F 17.5 °F 26.6 °F 93% 30.16 in 5.0 mi South 13.8 mph - N/A   Clear
10:35 PM 28.4 °F 18.0 °F 26.6 °F 93% 30.16 in 5.0 mi South 12.7 mph - N/A   Clear
10:55 PM 28.4 °F 17.5 °F 26.6 °F 93% 30.16 in 5.0 mi South 13.8 mph - N/A   Clear
11:15 PM 28.4 °F 18.0 °F 26.6 °F 93% 30.16 in 5.0 mi South 12.7 mph - N/A   Clear
11:35 PM 28.4 °F 17.0 °F 26.6 °F 93% 30.17 in 5.0 mi South 15.0 mph - N/A   Clear
11:55 PM 28.4 °F 17.0 °F 24.8 °F 86% 30.17 in 5.0 mi South 15.0 mph 19.6 mph N/A   Clear